Showing default

ATS 3, 3029

Orbit data source: Space-Track

ATS 3, 3029 is a payload satellite owned by GSFC (US) in GEO that was launched on Sun, 05 Nov 1967 UTC via an ATLAS SLV-3 AGENA D launch vehicle from the Air Force Eastern Test Range (AFETR). Payload-class satellites include a variety of spacecraft equipped with specific instruments for various scientific and technological missions. These include communications satellites like Starlink; space stations such as the ISS; scientific satellites like the Hubble; Earth observation satellites from companies like Planet Labs, Umbra, and HawkEye 360; GPS; miniature CubeSats for education and research; and military/defense satellites.

Loading next visibility...
Identifier
3029, 1967-111A
Orbit
GEO
Country
Flag of USUS
Related business
Manufacturer
Hughes
Mission
Non-operational spacecraft
Bus & Motor
HS-306, JPL SR-28-3
Mass
714 kg wet, 252 kg dry
Launch date (UTC)
1967-11-05 (58 years ago)
Launch vehicle
ATLAS SLV-3 AGENA D
Launch site
Air Force Eastern Test Range (AFETR)
Object type
Payload
Rocket body
Debris
Shape & HBR
Unknown
Radar Cross Section
Large (>1 m²)

Expand to show TLE details & history
Last TLE update: 10 hours ago

TLE from 10 hours ago
0 ATS 3
1 03029U 67111A   25291.88970559 -.00000089  00000-0  00000-0 0  9998
2 03029   2.5537  81.1479 0015349  32.4732 129.0116  1.00271608212214
Epoch: 2025-10-18T21:21Z
TLE epoch observation values (Epoch: 2025-10-18T21:21:10.562Z)
Latitude
0.81478°
Longitude
-105.14509°
Altitude
35,826.56 km
Speed
3.072 km/s
True Right ascension
16h 11m 03s
True Declination
0° 48' 50"
Sunlit
Object was in daylight at epoch
Visualization orbit readout
Latitude
Unknown
Longitude
Unknown
Altitude
Unknown
Speed
Unknown
Apparent Right ascension
Unknown
Apparent Declination
Unknown
Sunlit
N/A
Visualization observer readout
Local Sidereal Time
01:51:02
Azimuth
Unknown
Elevation
Unknown
Doppler factor
Unknown
Orbital elements
Apogee altitude
35,852.432 km
Perigee altitude
35,722.991 km
Semi-major axis
42,165.849 km
Eccentricity
0.00153
Inclination
2.5537°
RAAN
81.1479°
Arg. of periapsis
32.4732°
True anomaly
129.1481°
Mean anomaly
129.0116°
Eccentric anomaly
129.07987°
Mean motion
0.25067 °/min
Orbital period
1,436.15 mins
BSTAR
0
Loading maneuver chart data...
Computing Atmospheric mass density...
Loading historical data...
Loading historical data...
Loading historical data...
Loading historical data...
Loading historical data...
Loading historical data...
Loading historical data...
Other satellites on launch #111 in the year 1967 (1967-11-05 UTC)

Documentation

Showing up to 5 results
|